This is the latest recevied weather packets stored in our database for station/object KM4LTG. If no packets are shown the sender has not sent any weather packets the latest 1 day(s).
| Time | Temp. | Humidity | Pressure | Rain* | Wind** | Luminosity | Snow |
|---|---|---|---|---|---|---|---|
| 1778028817 | 24.44° C | 75% | 1016.1 hPa | 0 mm | 0.45 m/s, 338° | - | - |
| 1778028530 | 24.44° C | 75% | 1016 hPa | 0 mm | 0.45 m/s, 338° | - | - |
| 1778028255 | 24.44° C | 74% | 1015.9 hPa | 0 mm | 0.45 m/s, 338° | - | - |
| 1778027680 | 25° C | 74% | 1015.9 hPa | 0 mm | 0.45 m/s, 338° | - | - |
| 1778027400 | 25° C | 74% | 1015.9 hPa | 0 mm | 0.45 m/s, 338° | - | - |
| 1778027145 | 25° C | 74% | 1015.9 hPa | 0 mm | 0.45 m/s, 338° | - | - |
| 1778026860 | 25° C | 73% | 1015.8 hPa | 0 mm | 0.45 m/s, 338° | - | - |
| 1778026570 | 25° C | 73% | 1015.8 hPa | 0 mm | 0.45 m/s, 338° | - | - |
| 1778026271 | 25.56° C | 72% | 1015.7 hPa | 0 mm | 0.89 m/s, 338° | - | - |
| 1778025973 | 25.56° C | 72% | 1015.6 hPa | 0 mm | 0.89 m/s, 338° | - | - |
| 1778025725 | 25.56° C | 71% | 1015.6 hPa | 0 mm | 0.89 m/s, 338° | - | - |
| 1778025470 | 25.56° C | 71% | 1015.6 hPa | 0 mm | 0.89 m/s, 338° | - | - |
| 1778025175 | 25.56° C | 70% | 1015.7 hPa | 0 mm | 1.34 m/s, 338° | - | - |
| 1778024907 | 25.56° C | 70% | 1015.5 hPa | 0 mm | 1.34 m/s, 338° | - | - |
| 1778024640 | 26.11° C | 69% | 1015.6 hPa | 0 mm | 0.45 m/s, 315° | - | - |
| 1778024370 | 26.11° C | 69% | 1015.5 hPa | 0 mm | 0.89 m/s, 315° | - | - |
| 1778024125 | 26.11° C | 69% | 1015.5 hPa | 0 mm | 0.89 m/s, 315° | - | - |
| 1778023885 | 26.11° C | 69% | 1015.5 hPa | 0 mm | 1.34 m/s, 338° | - | - |
| 1778023627 | 26.67° C | 68% | 1015.5 hPa | 0 mm | 1.34 m/s, 338° | - | - |
| 1778023374 | 27.22° C | 67% | 1015.3 hPa | 0 mm | 0.89 m/s, 338° | - | - |
| 1778023090 | 27.22° C | 66% | 1015.5 hPa | 0 mm | 0.89 m/s, 292° | - | - |
| 1778022790 | 27.22° C | 65% | 1015.4 hPa | 0 mm | 0.89 m/s, 338° | - | - |
| 1778022510 | 27.78° C | 66% | 1015.4 hPa | 0 mm | 0.89 m/s, 360° | - | - |
| 1778022245 | 27.78° C | 65% | 1015.4 hPa | 0 mm | 0.89 m/s, 338° | - | - |
| 1778021961 | 27.78° C | 66% | 1015.4 hPa | 0 mm | 0.89 m/s, 338° | - | - |
* Rain latest hour (hover to see other rain measurements)
** Current wind speed in m/s (hover to see current wind gust speed)